Regional Weather Roundup
Issued by NWS Midland/Odessa, TX

Skip options and go directly to product.
Home | Oldest Version | Previous Version | Current Version | All | Text Only | Save Text | Print | Product List | Glossary On

Skip product version selection by date and time.   
152
ASUS44 KMAF 251310
RWRMAF
MIDLAND AREA WEATHER ROUNDUP
NATIONAL WEATHER SERVICE MIDLAND TX
800 AM CDT SAT OCT 25 2014

...IN SOUTHWEST TEXAS AND SOUTHEAST NEW MEXICO...

CITY           SKY/WX    TMP DP  RH WIND       PRES   REMARKS
ALPINE         CLEAR     57  51  78 SW9       30.32R
ANDREWS        FAIR      60  58  95 S7        30.19R
ARTESIA        NOT AVBL
BIG SPRING     CLEAR     60  57  91 SE5       30.20R
CARLSBAD       CLEAR     51  47  86 W5        30.17R
DRYDEN           N/A     61  59  93 N7        30.16R
FORT STOCKTON  CLEAR     62  55  77 S12       30.18R
GUAD PASS      CLEAR     59  44  57 SW9       30.31R
HOBBS          FOG       54  54 100 S6        30.21R VSB 1/4
MARFA          CLEAR     46  45  93 N5        30.31R
MIDLAND AIRPK  CLEAR     61  58  89 S3        30.19R
MIDLAND INTL   CLEAR     61  57  87 S5        30.17S
ODESSA         CLEAR     59  56  89 S5        30.18S
PECOS          CLEAR     52  50  94 CALM      30.16S
PRESIDIO       FAIR      63  55  74 N3        30.19R
SEMINOLE       CLEAR     51  50  95 CALM      30.20S
SNYDER         CLEAR     58  56  94 S3        30.18R
WINK           CLEAR     60  55  83 SE5       30.16R
$$
...OTHER STATIONS IN TEXAS...

CITY           SKY/WX    TMP DP  RH WIND       PRES   REMARKS
ABILENE        CLEAR     65  57  75 SW5       30.15R
AMARILLO       CLEAR     54  48  80 SW12      30.16R
AUSTIN         CLEAR     55  54  96 CALM      30.15R
BROWNSVILLE    CLEAR     65  63  93 CALM      30.13R
CORPUS CHRISTI CLEAR     62  59  90 NW5       30.14R
DALLAS FTW     CLEAR     64  58  80 S7        30.12R
DEL RIO        CLEAR     64  61  90 E6        30.14R
EL PASO        CLEAR     56  49  77 NE5       30.21R
HOUSTON INT    CLEAR     57  56  96 CALM      30.16R
LUBBOCK        CLEAR     53  49  86 W8        30.18R
SAN ANGELO     CLEAR     56  53  90 SW3       30.17R
SAN ANTONIO    CLEAR     63  57  81 CALM      30.16S
WACO           CLEAR     61  58  90 SE7       30.14R
WICHITA FALLS  NOT AVBL
$$
...OTHER LOCATIONS IN NEW MEXICO...

CITY           SKY/WX    TMP DP  RH WIND       PRES   REMARKS
ALAMAGORDO     NOT AVBL
ALBUQUERQUE    PTCLDY    52  26  36 N8        30.29S
CANNON AFB     CLEAR     54  48  81 W5        30.20R
CLOVIS         CLEAR     50  45  81 SW5       30.22S
HOLLOMAN AFB   PTCLDY    49  42  79 W5        30.22R
ROSWELL        CLEAR     51  47  86 CALM      30.18S
RUIDOSO        CLEAR     50  32  50 SW8       30.37S
SANTA FE       CLEAR     42  22  44 N13       30.33S WCI  35
TRUTH OR CONSE CLEAR     52  43  71 W5        30.25R
TUCUMCARI      CLEAR     52  41  66 W7        30.16R
$$

USA.gov is the U.S. government's official web portal to all federal, state and local government web resources and services.